YACHTS Weather Reports


Display with metric or nautical units.
time (UTC)temp
F
wind
direction
speed
MPH
gust
MPH
rain 1hr
in
rain 24hr
in
rain mn
in
humidity
%
barometer
mb
20211130053829 52 0 0.0 0.0 0.00 0.06 0.06 92 1023.4
20211130053316 53 0 0.0 0.0 0.00 0.06 0.06 92 1023.4
20211130052803 52 0 0.0 0.0 0.00 0.06 0.06 92 1023.3
20211130052250 53 0 0.0 0.0 0.00 0.06 0.06 92 1023.2
20211130051737 53 0 0.0 0.0 0.00 0.06 0.06 92 1023.3
20211130050711 53 0 0.0 0.0 0.00 0.06 0.06 92 1023.2
20211130050158 53 0 0.0 0.0 0.00 0.06 0.06 92 1023.2
20211130045645 52 0 0.0 0.0 0.00 0.06 0.06 92 1023.2
20211130045134 52 0 0.0 0.0 0.00 0.06 0.06 92 1023.1
20211130044106 53 0 0.0 0.0 0.00 0.06 0.06 92 1023.3
20211130042527 52 0 0.0 0.0 0.00 0.06 0.06 92 1023.2
20211130042014 53 0 0.0 0.0 0.00 0.06 0.06 92 1023.2
20211130041501 53 0 0.0 0.0 0.00 0.06 0.06 92 1023.4
20211130040948 53 0 0.0 0.0 0.00 0.06 0.06 92 1023.5
20211130040435 53 0 0.0 0.0 0.00 0.06 0.06 92 1023.6
20211130035409 53 0 0.0 0.0 0.00 0.06 0.06 92 1023.7
20211130034858 53 0 0.0 0.0 0.00 0.06 0.06 92 1023.7
20211130034343 53 0 0.0 0.0 0.00 0.06 0.06 92 1023.7
20211130033830 53 0 0.0 0.0 0.00 0.06 0.06 92 1023.5
20211130033317 53 0 0.0 0.0 0.00 0.06 0.06 92 1023.6
20211130032251 53 0 0.0 0.0 0.00 0.06 0.06 91 1023.6
20211130031738 53 0 0.0 0.0 0.00 0.06 0.06 91 1023.6
20211130030712 54 0 0.0 0.0 0.00 0.06 0.06 92 1023.8
20211130030159 53 0 0.0 0.0 0.00 0.06 0.06 91 1023.8
20211130025646 53 0 0.0 0.0 0.00 0.06 0.06 91 1023.7
20211130024108 54 0 0.0 0.0 0.00 0.06 0.06 91 1023.7
20211130023041 53 0 0.0 0.0 0.00 0.06 0.06 91 1023.8
20211130022528 53 0 0.0 0.0 0.00 0.06 0.06 91 1023.8
20211130021502 54 0 0.0 0.0 0.00 0.06 0.06 91 1023.8
20211130020949 53 0 0.0 0.0 0.00 0.06 0.06 91 1023.8
20211130020436 54 0 0.0 0.0 0.00 0.06 0.06 91 1023.9
20211130015411 54 0 0.0 0.0 0.00 0.06 0.06 91 1023.9
20211130014857 54 0 0.0 0.0 0.00 0.06 0.06 91 1023.9
20211130014344 54 0 0.0 0.0 0.00 0.06 0.06 91 1024.1
20211130013831 54 0 0.0 0.0 0.00 0.06 0.06 91 1024.0
20211130012252 54 0 0.0 0.0 0.00 0.06 0.06 91 1024.1
20211130011739 54 0 0.0 0.0 0.00 0.06 0.06 91 1024.1
20211130011226 55 0 0.0 0.0 0.00 0.06 0.06 91 1023.9
20211130010201 54 0 0.0 0.0 0.00 0.06 0.06 91 1023.8
20211130004621 55 0 0.0 0.0 0.00 0.06 0.06 91 1023.8
20211130004108 55 0 0.0 0.0 0.00 0.06 0.06 91 1023.8
20211130001503 54 0 0.0 0.0 0.00 0.06 0.06 91 1024.0
20211130000437 55 0 0.0 0.0 0.00 0.06 0.06 91 1023.9
20211129235924 55 0 0.0 6.0 0.00 0.06 0.06 91 1023.8
20211129235411 54 0 0.0 6.0 0.00 0.06 0.06 91 1023.7
20211129234858 55 267 0.0 6.0 0.00 0.06 0.06 91 1023.8
20211129233831 55 247 0.0 6.0 0.00 0.06 0.06 91 1023.8
20211129233319 55 0 0.0 5.0 0.00 0.06 0.06 91 1023.8
20211129232805 54 191 0.0 2.0 0.00 0.06 0.06 91 1023.7
20211129232253 55 191 0.0 2.0 0.00 0.06 0.06 91 1023.7
20211129231227 56 0 0.0 6.0 0.00 0.06 0.06 91 1023.7
20211129230201 56 266 1.0 4.0 0.00 0.06 0.06 91 1023.7
20211129225648 55 0 0.0 5.0 0.00 0.06 0.06 91 1023.7
20211129225135 56 0 0.0 5.0 0.00 0.06 0.06 91 1023.8
20211129224622 55 0 0.0 5.0 0.00 0.06 0.06 91 1024.0
20211129224109 54 0 0.0 5.0 0.00 0.06 0.06 91 1024.0
20211129223042 54 252 0.0 5.0 0.00 0.06 0.06 91 1024.0
20211129222530 55 267 1.0 5.0 0.00 0.06 0.06 91 1024.0
20211129220439 55 0 0.0 5.0 0.00 0.06 0.06 91 1024.0
20211129215925 54 261 0.0 5.0 0.00 0.06 0.06 91 1024.0
20211129215412 54 268 0.0 4.0 0.00 0.06 0.06 91 1024.0
20211129214858 55 0 0.0 0.0 0.00 0.06 0.06 91 1024.0
20211129214346 55 0 0.0 0.0 0.00 0.06 0.06 91 1024.0
20211129213833 55 0 0.0 0.0 0.00 0.06 0.06 91 1024.0
20211129213319 55 0 0.0 0.0 0.00 0.06 0.06 91 1024.0
20211129212806 55 0 0.0 0.0 0.00 0.06 0.06 91 1024.1
20211129212254 54 0 0.0 0.0 0.00 0.06 0.06 91 1024.2
20211129211741 55 0 0.0 0.0 0.00 0.06 0.06 91 1024.2
20211129211228 55 0 0.0 3.0 0.00 0.06 0.06 91 1024.3
20211129210716 54 0 0.0 3.0 0.00 0.06 0.06 91 1024.4
20211129210202 54 184 0.0 3.0 0.01 0.06 0.06 91 1024.5
20211129205649 55 0 0.0 1.0 0.01 0.06 0.06 91 1024.6
20211129205136 55 0 0.0 4.0 0.01 0.06 0.06 91 1024.6
20211129204109 54 0 0.0 4.0 0.01 0.06 0.06 91 1024.6
20211129202018 55 0 0.0 0.0 0.01 0.06 0.06 91 1024.7
20211129195926 54 0 0.0 0.0 0.00 0.06 0.06 91 1024.8
20211129195413 55 0 0.0 5.0 0.00 0.05 0.05 91 1024.9
20211129194900 54 0 0.0 5.0 0.00 0.05 0.05 91 1024.9
20211129194347 55 292 2.0 5.0 0.00 0.05 0.05 91 1024.9
20211129193321 54 0 0.0 0.0 0.00 0.05 0.05 91 1025.0
20211129192255 54 0 0.0 4.0 0.00 0.05 0.05 91 1025.2
20211129185650 55 0 0.0 0.0 0.00 0.05 0.05 91 1025.1
20211129185136 55 0 0.0 0.0 0.00 0.05 0.05 91 1025.1
20211129184623 55 0 0.0 0.0 0.00 0.05 0.05 91 1025.0
20211129184110 56 0 0.0 0.0 0.00 0.05 0.05 90 1025.1
20211129183044 55 0 0.0 0.0 0.00 0.05 0.05 90 1024.9
20211129182531 56 0 0.0 3.0 0.00 0.05 0.05 91 1024.8
20211129182019 56 0 0.0 3.0 0.00 0.05 0.05 91 1024.6
20211129175926 56 0 0.0 0.0 0.00 0.05 0.05 91 1024.2
20211129175413 56 0 0.0 0.0 0.00 0.05 0.05 91 1024.2
20211129174901 55 0 0.0 0.0 0.00 0.05 0.05 91 1024.1
20211129174347 55 0 0.0 0.0 0.00 0.05 0.05 91 1024.0
20211129173834 55 0 0.0 0.0 0.00 0.05 0.05 91 1024.1
20211129173321 55 0 0.0 0.0 0.00 0.05 0.05 91 1024.2
20211129171742 55 0 0.0 0.0 0.00 0.05 0.05 91 1024.1
20211129171229 55 0 0.0 0.0 0.00 0.05 0.05 91 1024.0
20211129164624 54 0 0.0 0.0 0.00 0.05 0.05 91 1023.5
20211129164111 54 0 0.0 0.0 0.00 0.05 0.05 91 1023.4
20211129163558 54 0 0.0 0.0 0.00 0.05 0.05 91 1023.4
20211129163045 54 0 0.0 0.0 0.00 0.05 0.05 91 1023.1
20211129162532 54 0 0.0 0.0 0.00 0.05 0.05 91 1022.9
20211129162020 54 0 0.0 0.0 0.00 0.05 0.05 91 1022.8
20211129161508 54 0 0.0 0.0 0.00 0.05 0.05 91 1022.6
20211129160440 54 0 0.0 0.0 0.00 0.05 0.05 91 1023.0
20211129155928 54 0 0.0 0.0 0.00 0.05 0.05 91 1023.2
20211129154348 54 0 0.0 0.0 0.00 0.05 0.05 90 1023.5
20211129153835 54 0 0.0 0.0 0.00 0.05 0.05 90 1023.5
20211129152256 54 0 0.0 0.0 0.00 0.05 0.05 90 1023.7
20211129151743 54 0 0.0 0.0 0.00 0.05 0.05 90 1023.7
20211129150204 54 0 0.0 0.0 0.00 0.05 0.05 90 1023.6
20211129145138 54 0 0.0 6.0 0.00 0.05 0.05 90 1023.7
20211129144625 53 0 0.0 6.0 0.00 0.05 0.05 90 1023.6
20211129144112 54 0 0.0 4.0 0.01 0.05 0.05 90 1023.7
20211129143649 53 0 0.0 4.0 0.01 0.05 0.05 90 1023.6
20211129143559 53 0 0.0 4.0 0.01 0.05 0.05 90 1023.6
20211129143046 55 0 0.0 7.0 0.01 0.05 0.05 90 1023.9
20211129142533 54 0 0.0 7.0 0.01 0.05 0.05 90 1024.0
20211129141507 54 0 0.0 0.0 0.01 0.05 0.05 90 1023.7
20211129135928 54 0 0.0 6.0 0.02 0.05 0.05 90 1023.6
20211129135415 54 264 1.0 6.0 0.02 0.05 0.05 90 1023.6
20211129134902 54 256 0.0 3.0 0.02 0.05 0.05 90 1023.7
20211129134349 54 0 0.0 0.0 0.01 0.05 0.05 90 1023.6
20211129133323 54 0 0.0 3.0 0.01 0.04 0.04 90 1023.6
20211129132257 54 273 0.0 3.0 0.01 0.04 0.04 90 1023.6
20211129131744 54 0 0.0 0.0 0.01 0.04 0.04 90 1023.5
20211129131230 54 0 0.0 0.0 0.01 0.04 0.04 90 1023.4
20211129125139 54 0 0.0 5.0 0.01 0.04 0.03 89 1023.3
20211129123047 55 0 0.0 3.0 0.01 0.04 0.03 89 1023.1
20211129122021 54 205 0.0 3.0 0.02 0.04 0.03 89 1023.1
20211129120955 54 0 0.0 4.0 0.02 0.04 0.03 89 1022.9
20211129120442 54 253 0.0 4.0 0.02 0.03 0.03 89 1022.9
20211129115929 54 0 0.0 3.0 0.02 0.03 0.03 89 1022.8
20211129115417 54 263 0.0 3.0 0.02 0.02 0.02 89 1022.8
20211129114903 54 0 0.0 6.0 0.02 0.02 0.02 88 1022.8
20211129114350 55 0 0.0 6.0 0.02 0.02 0.02 88 1022.9
20211129113324 54 0 0.0 0.0 0.02 0.02 0.02 88 1022.9
20211129112811 54 0 0.0 0.0 0.02 0.02 0.02 88 1022.9
20211129112258 55 0 0.0 0.0 0.01 0.02 0.01 88 1022.9
20211129111232 54 0 0.0 9.0 0.01 0.02 0.01 88 1022.9
20211129110719 54 186 0.0 9.0 0.01 0.02 0.01 88 1023.0
20211129105139 55 315 1.0 8.0 0.00 0.01 0.00 87 1023.2
20211129104114 55 250 2.0 8.0 0.00 0.01 0.00 87 1023.2
20211129103601 54 184 1.0 10.0 0.00 0.01 0.00 86 1023.3
20211129103048 55 277 5.0 10.0 0.00 0.01 0.00 86 1023.2
20211129102535 54 224 0.0 10.0 0.00 0.01 0.00 86 1023.1
20211129102021 55 275 0.0 4.0 0.00 0.01 0.00 86 1023.1
20211129100956 55 215 0.0 5.0 0.00 0.01 0.00 86 1022.9
20211129100442 55 273 0.0 5.0 0.00 0.02 0.00 86 1022.9
20211129095930 54 0 0.0 0.0 0.00 0.02 0.00 86 1022.8
20211129095419 54 0 0.0 0.0 0.00 0.02 0.00 86 1022.8
20211129094904 56 0 0.0 0.0 0.00 0.02 0.00 86 1022.7
20211129093325 55 0 0.0 0.0 0.00 0.02 0.00 86 1022.7
20211129092258 55 0 0.0 6.0 0.00 0.02 0.00 86 1022.6
20211129091746 55 291 1.0 6.0 0.00 0.02 0.00 86 1022.7
20211129091233 55 0 0.0 5.0 0.00 0.02 0.00 86 1022.7
20211129090207 54 0 0.0 0.0 0.00 0.02 0.00 86 1022.9
20211129085657 54 0 0.0 12.0 0.00 0.02 0.00 85 1022.8
20211129084115 55 0 3.0 11.0 0.00 0.02 0.00 85 1023.1
20211129083602 55 233 3.0 8.0 0.00 0.02 0.00 85 1023.0
20211129083048 55 0 0.0 8.0 0.00 0.02 0.00 85 1023.2
20211129082536 54 147 0.0 8.0 0.00 0.02 0.00 85 1023.2
20211129082022 55 0 0.0 4.0 0.00 0.02 0.00 85 1023.2
20211129081053 55 0 0.0 0.0 0.00 0.02 0.00 85 1023.1
20211129080957 55 0 0.0 0.0 0.00 0.02 0.00 85 1023.1
20211129080444 54 0 0.0 0.0 0.00 0.02 0.00 85 1023.1
20211129075931 55 210 2.0 11.0 0.00 0.02 0.02 85 1023.2
20211129075418 55 147 0.0 11.0 0.00 0.02 0.02 85 1023.1
20211129074905 55 263 0.0 11.0 0.00 0.02 0.02 85 1023.1
20211129074352 54 240 3.0 8.0 0.00 0.02 0.02 85 1023.1
20211129073839 55 0 0.0 0.0 0.00 0.02 0.02 85 1023.1
20211129073326 54 190 1.0 8.0 0.00 0.02 0.02 85 1023.1
20211129072813 54 0 0.0 8.0 0.00 0.02 0.02 85 1023.2
20211129072300 54 250 0.0 8.0 0.00 0.02 0.02 85 1023.2
20211129071747 54 197 0.0 5.0 0.00 0.02 0.02 85 1023.2
20211129071234 55 119 0.0 7.0 0.00 0.02 0.02 85 1023.2
20211129070721 55 0 0.0 7.0 0.00 0.02 0.02 85 1023.3
20211129070208 54 222 2.0 7.0 0.00 0.02 0.02 85 1023.3
20211129065656 54 0 0.0 0.0 0.00 0.02 0.02 85 1023.2
20211129065142 55 0 0.0 0.0 0.00 0.02 0.02 85 1023.2
20211129064628 54 0 0.0 0.0 0.00 0.02 0.02 85 1023.2
20211129064115 55 0 0.0 0.0 0.00 0.02 0.02 85 1023.0
20211129063602 55 0 0.0 0.0 0.00 0.02 0.02 85 1022.9
20211129063049 54 0 0.0 0.0 0.00 0.02 0.02 85 1022.9
20211129062536 54 0 0.0 0.0 0.00 0.02 0.02 85 1023.0
20211129062024 55 0 0.0 0.0 0.00 0.02 0.02 84 1023.0
20211129060958 55 0 0.0 5.0 0.00 0.02 0.02 84 1023.1
20211129060444 54 245 0.0 5.0 0.00 0.02 0.02 85 1023.1
20211129055931 54 278 2.0 5.0 0.00 0.02 0.02 85 1023.2
20211129055418 54 285 0.0 5.0 0.00 0.02 0.02 85 1023.0
20211129054905 54 0 0.0 5.0 0.00 0.02 0.02 85 1023.0
20211129054352 54 0 0.0 0.0 0.00 0.02 0.02 85 1023.0